SJV258 WIII-WAWW

Flight info

Callsign SJV258
Flight time N/A
Altitude 35000
Route CA T5 MKS W54 LEKEX
Aircraft A320/M-SDE3FGHIRWY/LB1

Departure

Time 2026-04-30 22:45
Airport Soekarno-Hatta International Airport (WIII)

Arrival

Time N/A
Airport Haluoleo Airport (WAWW)
Time Latitude Longitude Altitude Speed Heading
2026-04-30 22:20 -6.12008 106.65299 38 ft 0 kts 214°
2026-04-30 22:34 -6.11960 106.65326 36 ft 4 kts 198°
2026-04-30 22:35 -6.11923 106.65323 34 ft 1 kts 128°
2026-04-30 22:36 -6.11922 106.65321 35 ft 0 kts 128°
2026-04-30 22:37 -6.11933 106.65336 36 ft 3 kts 128°
2026-04-30 22:38 -6.11956 106.65391 37 ft 6 kts 82°
2026-04-30 22:38 -6.11922 106.65487 37 ft 9 kts 70°
2026-04-30 22:39 -6.11897 106.65550 37 ft 10 kts 66°
2026-04-30 22:39 -6.11695 106.65583 37 ft 15 kts 338°
2026-04-30 22:40 -6.11515 106.65823 37 ft 19 kts 69°
2026-04-30 22:41 -6.11352 106.66228 37 ft 23 kts 68°
2026-04-30 22:41 -6.11226 106.66543 37 ft 26 kts 68°
2026-04-30 22:42 -6.10967 106.66954 37 ft 10 kts 325°
2026-04-30 22:43 -6.10912 106.66895 36 ft 5 kts 324°
2026-04-30 22:43 -6.10908 106.66853 35 ft 2 kts 252°
2026-04-30 22:44 -6.11063 106.66475 37 ft 85 kts 248°
2026-04-30 22:45 -6.12664 106.62426 1020 ft 183 kts 248°
2026-04-30 22:45 -6.12492 106.59914 1965 ft 203 kts 291°
2026-04-30 22:46 -6.11274 106.57048 2696 ft 234 kts 292°
2026-04-30 22:47 -6.08168 106.51176 5507 ft 250 kts 328°
2026-04-30 22:47 -6.04787 106.50513 6918 ft 254 kts 12°
2026-04-30 22:48 -6.01806 106.52263 8449 ft 252 kts 48°
2026-04-30 22:49 -6.00031 106.57174 10351 ft 269 kts 81°
2026-04-30 22:49 -5.99156 106.63465 10796 ft 336 kts 82°
2026-04-30 22:50 -5.97807 106.73211 12894 ft 359 kts 81°
2026-04-30 22:51 -5.97111 106.78175 14059 ft 363 kts 81°
2026-04-30 22:51 -5.96758 106.83263 15148 ft 370 kts 95°
2026-04-30 22:52 -5.97280 106.85802 15679 ft 374 kts 106°
2026-04-30 22:52 -5.99291 106.90669 16715 ft 379 kts 111°
2026-04-30 22:53 -6.01393 106.95571 17737 ft 384 kts 111°
2026-04-30 22:53 -6.03519 107.00518 18737 ft 388 kts 111°
2026-04-30 22:53 -6.04594 107.03023 19205 ft 391 kts 111°
2026-04-30 22:54 -6.06760 107.08083 20113 ft 397 kts 111°
2026-04-30 22:55 -6.10069 107.15817 21375 ft 406 kts 112°
2026-04-30 22:55 -6.12314 107.21062 22136 ft 411 kts 112°
2026-04-30 22:56 -6.14580 107.26349 22863 ft 417 kts 112°
2026-04-30 22:56 -6.18039 107.34453 23896 ft 426 kts 111°
2026-04-30 22:57 -6.20392 107.39961 24569 ft 431 kts 111°
2026-04-30 22:57 -6.22770 107.45520 25269 ft 434 kts 111°
2026-04-30 22:58 -6.25163 107.51114 25946 ft 437 kts 112°
2026-04-30 22:59 -6.28792 107.59588 26970 ft 442 kts 112°
2026-04-30 22:59 -6.32408 107.68090 28175 ft 441 kts 112°